ELECTRON KICK STAGE R/B, 100244

Orbit data source: Space-Track

ELECTRON KICK STAGE R/B, 100244 is space debris in LEO originally from a launch on Thu, 06 Aug 2026 UTC launched from the Rocket Lab Launch Complex (RLLC). Debris objects in space refer to the collection of defunct objects orbiting the Earth. Examples of debris include non-operational satellites, rocket bodies, and fragments generated from explosions, collisions, or faulty payload assembly.

Loading next visibility...
Identifier
100244, 2026-180B
Orbit
LEO
Country
Flag of USUS
Related business
Manufacturer
Rocket Lab
Mission
Spacecraft
Bus & Motor
KICK STAGE, CURIE
Mass
~42 kg wet, ~42 kg dry
Launch date (UTC)
2026-08-06 (1 month ago)
Launch vehicle
Unknown
Launch site
Rocket Lab Launch Complex (RLLC)
Object type
Payload
Rocket body
Debris
Shape & HBR
TRUNC CONE, 8.0 m
Radar Cross Section
Medium (>0.1 m² and <1 m²)

Expand to show TLE details & history
Last TLE update: 20 hours ago

TLE from 20 hours ago
0 ELECTRON KICK STAGE R/B
1 A0244U 26180B   26254.16575910  .00002115  00000-0  19425-3 0  9993
2 A0244  42.0016 193.0791 0006742 142.8095 217.3197 14.97376472  5378
Epoch: 2026-09-11T03:58Z
TLE epoch observation values (Epoch: 2026-09-11T03:58:41.586Z)
Latitude
-0.00004°
Longitude
143.21276°
Altitude
578.404 km
Speed
7.571 km/s
True Right ascension
12h 52m 18s
True Declination
0° 00' 00"
Sunlit
Object was in daylight at epoch
Visualization orbit readout
Latitude
Unknown
Longitude
Unknown
Altitude
Unknown
Speed
Unknown
Apparent Right ascension
Unknown
Apparent Declination
Unknown
Sunlit
N/A
Visualization observer readout
Local Sidereal Time
16:02:41
Azimuth
Unknown
Elevation
Unknown
Doppler factor
Unknown
Orbital elements
Apogee altitude
581.78 km
Perigee altitude
572.401 km
Semi-major axis
6,955.228 km
Eccentricity
0.00067
Inclination
42.0016°
RAAN
193.0791°
Arg. of periapsis
142.8095°
True anomaly
217.27289°
Mean anomaly
217.3197°
Eccentric anomaly
217.29629°
Mean motion
3.74176 °/min
Orbital period
96.21 mins
BSTAR
0.00019425
Loading maneuver chart data...
Computing Atmospheric mass density...
Loading historical data...
Loading historical data...
Loading historical data...
Loading historical data...
Loading historical data...
Loading historical data...
Loading historical data...
Other satellites on launch #180 in the year 2026 (2026-08-06 UTC)

Documentation

Showing up to 5 results
|